IBE05FF LPMA-LEMD

Flight info

Callsign IBE05FF
Flight time N/A
Altitude 37000
Route DEGUN DCT NARTA DCT PORTA DCT OGERO Z409 TLD
Aircraft A320/M-SDE3FGHIRWY/LB1

Departure

Time 2026-05-01 14:59
Airport Cristiano Ronaldo International Airport (LPMA)

Arrival

Time N/A
Airport Adolfo Suárez Madrid–Barajas Airport (LEMD)
Time Latitude Longitude Altitude Speed Heading
2026-05-01 14:40 32.69409 -16.77588 169 ft 0 kts 138°
2026-05-01 14:49 32.69411 -16.77589 169 ft 2 kts 138°
2026-05-01 14:50 32.69436 -16.77618 169 ft 4 kts 129°
2026-05-01 14:50 32.69447 -16.77661 169 ft 0 kts 46°
2026-05-01 14:54 32.69448 -16.77660 169 ft 2 kts 46°
2026-05-01 14:54 32.69476 -16.77625 169 ft 7 kts 46°
2026-05-01 14:54 32.69508 -16.77586 169 ft 6 kts 45°
2026-05-01 14:54 32.69535 -16.77553 169 ft 9 kts 46°
2026-05-01 14:55 32.69584 -16.77492 169 ft 10 kts 46°
2026-05-01 14:55 32.69626 -16.77439 169 ft 8 kts 46°
2026-05-01 14:55 32.69686 -16.77365 169 ft 20 kts 46°
2026-05-01 14:55 32.69796 -16.77230 180 ft 21 kts 46°
2026-05-01 14:56 32.69862 -16.77161 184 ft 8 kts 37°
2026-05-01 14:56 32.69866 -16.77160 195 ft 1 kts 23°
2026-05-01 14:56 32.69908 -16.77174 187 ft 6 kts 351°
2026-05-01 14:56 32.69995 -16.77177 188 ft 20 kts
2026-05-01 14:57 32.70100 -16.77083 188 ft 18 kts 45°
2026-05-01 14:57 32.70283 -16.76867 188 ft 24 kts 45°
2026-05-01 14:57 32.70412 -16.76790 188 ft 16 kts 59°
2026-05-01 14:58 32.70387 -16.76747 194 ft 6 kts 196°
2026-05-01 14:58 32.70353 -16.76784 188 ft 7 kts 219°
2026-05-01 14:58 32.70307 -16.76815 191 ft 8 kts 210°
2026-05-01 14:58 32.70275 -16.76876 195 ft 12 kts 243°
2026-05-01 14:59 32.70208 -16.76956 188 ft 23 kts 225°
2026-05-01 14:59 32.69891 -16.77327 192 ft 104 kts 225°
2026-05-01 14:59 32.69204 -16.78119 190 ft 165 kts 221°
2026-05-01 14:59 32.68365 -16.79039 985 ft 162 kts 222°
2026-05-01 15:00 32.66294 -16.79860 2319 ft 192 kts 171°
2026-05-01 15:00 32.64943 -16.79468 2798 ft 207 kts 167°
2026-05-01 15:00 32.63472 -16.79016 2970 ft 231 kts 169°
2026-05-01 15:01 32.61868 -16.78576 3492 ft 240 kts 165°
2026-05-01 15:01 32.60464 -16.77489 4158 ft 252 kts 130°
2026-05-01 15:01 32.59792 -16.75494 4596 ft 276 kts 94°
2026-05-01 15:01 32.60076 -16.73210 5259 ft 286 kts 73°
2026-05-01 15:02 32.60772 -16.70977 5984 ft 292 kts 69°
2026-05-01 15:02 32.61024 -16.70254 6223 ft 294 kts 69°
2026-05-01 15:02 32.62280 -16.66410 7390 ft 302 kts 73°
2026-05-01 15:02 32.62920 -16.64047 8099 ft 306 kts 75°
2026-05-01 15:03 32.63489 -16.61604 8833 ft 309 kts 77°
2026-05-01 15:03 32.64008 -16.59114 9569 ft 313 kts 78°
2026-05-01 15:03 32.64541 -16.56596 10250 ft 317 kts 72°
2026-05-01 15:03 32.65358 -16.54455 10799 ft 321 kts 57°
2026-05-01 15:04 32.66765 -16.52349 11131 ft 336 kts 42°
2026-05-01 15:04 32.68511 -16.50364 11270 ft 359 kts 41°
2026-05-01 15:04 32.70378 -16.48271 11407 ft 380 kts 41°
2026-05-01 15:04 32.72329 -16.46080 11821 ft 390 kts 41°
2026-05-01 15:05 32.74308 -16.43840 12401 ft 395 kts 41°
2026-05-01 15:05 32.76306 -16.41568 13008 ft 399 kts 41°
2026-05-01 15:05 32.78316 -16.39274 13612 ft 403 kts 41°
2026-05-01 15:05 32.80350 -16.36945 14171 ft 408 kts 41°
2026-05-01 15:06 32.82399 -16.34593 14675 ft 412 kts 41°
2026-05-01 15:06 32.84471 -16.32214 15183 ft 416 kts 41°
2026-05-01 15:06 32.86563 -16.29814 15678 ft 420 kts 41°
2026-05-01 15:06 32.88684 -16.27384 16178 ft 425 kts 41°
2026-05-01 15:07 32.90821 -16.24936 16668 ft 429 kts 41°
2026-05-01 15:07 32.92985 -16.22453 17163 ft 433 kts 41°
2026-05-01 15:07 32.95160 -16.19948 17659 ft 438 kts 41°
2026-05-01 15:07 32.97360 -16.17415 18148 ft 442 kts 41°
2026-05-01 15:08 32.99581 -16.14859 18606 ft 446 kts 41°
2026-05-01 15:08 33.01824 -16.12278 19049 ft 450 kts 41°
2026-05-01 15:08 33.04088 -16.09674 19489 ft 453 kts 41°
2026-05-01 15:08 33.06361 -16.07056 19933 ft 456 kts 41°
2026-05-01 15:09 33.07874 -16.05310 20218 ft 458 kts 41°
2026-05-01 15:09 33.10948 -16.01757 20786 ft 462 kts 41°
2026-05-01 15:09 33.13260 -15.99083 21195 ft 465 kts 41°
2026-05-01 15:09 33.15591 -15.96389 21598 ft 468 kts 41°
2026-05-01 15:10 33.17934 -15.93679 21995 ft 471 kts 41°
2026-05-01 15:10 33.21860 -15.89125 22627 ft 475 kts 41°
2026-05-01 15:10 33.24239 -15.86362 22998 ft 478 kts 41°
2026-05-01 15:11 33.26627 -15.83589 23360 ft 481 kts 41°
2026-05-01 15:11 33.31448 -15.77984 24016 ft 486 kts 41°
2026-05-01 15:11 33.33875 -15.75156 24302 ft 488 kts 41°
2026-05-01 15:12 33.36311 -15.72315 24596 ft 490 kts 41°
2026-05-01 15:12 33.41216 -15.66595 25160 ft 494 kts 41°
2026-05-01 15:12 33.43690 -15.63725 25435 ft 496 kts 40°
2026-05-01 15:13 33.51285 -15.55200 26238 ft 501 kts 39°
2026-05-01 15:14 33.56380 -15.49530 26739 ft 505 kts 39°
2026-05-01 15:14 33.58952 -15.46643 26977 ft 507 kts 39°
2026-05-01 15:14 33.64104 -15.40818 27447 ft 510 kts 39°
2026-05-01 15:15 33.69276 -15.34935 27889 ft 514 kts 39°
2026-05-01 15:15 33.74489 -15.29018 28305 ft 517 kts 39°
2026-05-01 15:16 33.79737 -15.23066 28718 ft 519 kts 39°
2026-05-01 15:16 33.84979 -15.17097 29263 ft 518 kts 39°
2026-05-01 15:17 33.90212 -15.11125 29799 ft 518 kts 39°
2026-05-01 15:18 33.98051 -15.02180 30538 ft 517 kts 39°
2026-05-01 15:18 34.00667 -14.99194 30757 ft 517 kts 39°
2026-05-01 15:19 34.08490 -14.90227 31406 ft 517 kts 39°
2026-05-01 15:19 34.13370 -14.83823 31859 ft 521 kts 47°
2026-05-01 15:19 34.15665 -14.80437 32080 ft 521 kts 47°
2026-05-01 15:20 34.20238 -14.73662 32520 ft 521 kts 47°
2026-05-01 15:20 34.22522 -14.70270 32735 ft 520 kts 47°
2026-05-01 15:20 34.24806 -14.66874 32968 ft 520 kts 47°
2026-05-01 15:21 34.27060 -14.63516 33171 ft 520 kts 47°
2026-05-01 15:21 34.29336 -14.60120 33391 ft 520 kts 47°
2026-05-01 15:21 34.31611 -14.56718 33612 ft 520 kts 47°
2026-05-01 15:21 34.33889 -14.53309 33828 ft 520 kts 47°
2026-05-01 15:22 34.38421 -14.46506 34248 ft 519 kts 47°
2026-05-01 15:22 34.40685 -14.43100 34441 ft 519 kts 47°
2026-05-01 15:22 34.42945 -14.39697 34629 ft 519 kts 47°
2026-05-01 15:23 34.45208 -14.36286 34824 ft 518 kts 47°
2026-05-01 15:23 34.47466 -14.32878 35002 ft 518 kts 47°
2026-05-01 15:23 34.49719 -14.29474 35175 ft 518 kts 47°
2026-05-01 15:23 34.51971 -14.26066 35345 ft 518 kts 47°
2026-05-01 15:24 34.54226 -14.22649 35508 ft 518 kts 47°
2026-05-01 15:24 34.56625 -14.19431 35662 ft 511 kts 36°
2026-05-01 15:24 34.59250 -14.16620 35802 ft 510 kts 36°
2026-05-01 15:24 34.61951 -14.13741 35945 ft 510 kts 36°
2026-05-01 15:25 34.64576 -14.10935 36108 ft 510 kts 36°
2026-05-01 15:25 34.67237 -14.08083 36159 ft 510 kts 36°
2026-05-01 15:25 34.72555 -14.02368 36155 ft 510 kts 36°
2026-05-01 15:26 34.77869 -13.96632 36157 ft 510 kts 36°
2026-05-01 15:26 34.83180 -13.90900 36156 ft 510 kts 36°
2026-05-01 15:27 34.88491 -13.85159 36154 ft 511 kts 36°
2026-05-01 15:28 34.96461 -13.76514 36153 ft 511 kts 36°
2026-05-01 15:28 35.01770 -13.70748 36152 ft 511 kts 36°
2026-05-01 15:29 35.09739 -13.62091 36157 ft 512 kts 36°
2026-05-01 15:30 35.20370 -13.50471 36160 ft 516 kts 36°
2026-05-01 15:31 35.36605 -13.32674 36156 ft 529 kts 37°
2026-05-01 15:32 35.47567 -13.20589 36157 ft 530 kts 37°
2026-05-01 15:34 35.64017 -13.02386 36160 ft 531 kts 37°